DW9424 Weather Reports


Display with metric or nautical units.
time (UTC)temp
F
wind
direction
speed
MPH
gust
MPH
rain 1hr
in
rain 24hr
in
rain mn
in
humidity
%
barometer
mb
20180821192004 74 208 0.0 2.0 0.00 0.00 0.00 78 1016.4
20180821191003 74 165 1.0 5.0 0.00 0.00 0.00 78 1016.4
20180821190004 74 187 0.0 3.0 0.00 0.00 0.00 77 1016.4
20180821185003 74 252 1.0 4.0 0.00 0.00 0.00 77 1016.5
20180821182003 75 268 0.0 3.0 0.00 0.00 0.00 73 1016.9
20180821181003 75 283 1.0 4.0 0.00 0.00 0.00 72 1017.1
20180821180003 75 318 1.0 4.0 0.00 0.00 0.00 71 1017.1
20180821175003 76 319 0.0 3.0 0.00 0.00 0.00 71 1017.0
20180821174003 76 282 1.0 4.0 0.00 0.00 0.00 69 1017.1
20180821173003 76 250 1.0 5.0 0.00 0.00 0.00 68 1017.3
20180821171003 75 300 1.0 3.0 0.00 0.00 0.00 70 1017.6
20180821164003 75 270 1.0 3.0 0.00 0.00 0.00 70 1018.0
20180821162003 76 4 1.0 4.0 0.00 0.00 0.00 67 1018.3
20180821161003 77 292 1.0 4.0 0.00 0.00 0.00 67 1018.5
20180821155003 77 283 1.0 4.0 0.00 0.00 0.00 68 1018.5
20180821154003 76 224 1.0 4.0 0.00 0.00 0.00 69 1018.5
20180821153003 74 255 0.0 3.0 0.00 0.00 0.00 73 1018.7
20180821151003 72 321 0.0 3.0 0.00 0.00 0.00 76 1018.9
20180821150004 72 317 0.0 3.0 0.00 0.00 0.00 79 1019.1
20180821145004 71 301 0.0 3.0 0.00 0.00 0.00 81 1019.2
20180821143004 70 298 0.0 1.0 0.00 0.00 0.00 82 1019.2
20180821140004 69 342 0.0 3.0 0.00 0.00 0.00 86 1019.3
20180821134004 68 329 0.0 2.0 0.00 0.00 0.00 88 1019.4
20180821133004 68 339 0.0 1.0 0.00 0.00 0.00 89 1019.3
20180821131004 67 6 0.0 2.0 0.00 0.00 0.00 90 1019.2
20180821125003 67 328 0.0 1.0 0.00 0.00 0.00 93 1019.2
20180821124003 66 322 0.0 3.0 0.00 0.00 0.00 94 1019.2
20180821122003 66 307 0.0 2.0 0.00 0.00 0.00 95 1019.3
20180821121003 65 306 0.0 2.0 0.00 0.00 0.00 95 1019.2
20180821120003 65 306 0.0 2.0 0.00 0.00 0.00 95 1019.2
20180821115003 65 306 0.0 1.0 0.00 0.00 0.00 95 1019.4
20180821114003 65 306 0.0 1.0 0.00 0.00 0.00 95 1019.4
20180821113003 64 306 0.0 1.0 0.00 0.00 0.00 95 1019.4
20180821111003 64 306 0.0 1.0 0.00 0.00 0.00 95 1019.3
20180821105003 64 0 0.0 0.0 0.00 0.00 0.00 94 1019.2
20180821104003 64 0 0.0 0.0 0.00 0.00 0.00 94 1019.5
20180821102003 64 0 0.0 0.0 0.00 0.00 0.00 93 1019.6
20180821100003 64 0 0.0 0.0 0.00 0.00 0.00 92 1019.6
20180821092004 65 0 0.0 0.0 0.00 0.00 0.00 92 1019.7
20180821091004 65 0 0.0 0.0 0.00 0.00 0.00 92 1019.5
20180821090004 65 0 0.0 0.0 0.00 0.00 0.00 92 1019.7
20180821084004 65 0 0.0 0.0 0.00 0.00 0.00 91 1019.8
20180821082004 66 0 0.0 0.0 0.00 0.00 0.00 91 1019.9
20180821081004 66 0 0.0 0.0 0.00 0.00 0.00 90 1019.7
20180821075004 66 0 0.0 0.0 0.00 0.00 0.00 90 1019.8
20180821074004 66 0 0.0 0.0 0.00 0.00 0.00 90 1019.7
20180821073003 67 0 0.0 0.0 0.00 0.00 0.00 90 1019.7
20180821065004 67 0 0.0 0.0 0.00 0.00 0.00 91 1020.1
20180821063003 68 0 0.0 0.0 0.00 0.00 0.00 91 1020.4
20180821062003 68 0 0.0 0.0 0.00 0.00 0.00 91 1020.4
20180821061004 68 0 0.0 0.0 0.00 0.00 0.00 91 1020.5
20180821055003 68 0 0.0 0.0 0.00 0.00 0.00 91 1020.8
20180821054003 68 0 0.0 0.0 0.00 0.00 0.00 91 1020.9
20180821053003 68 306 0.0 1.0 0.00 0.00 0.00 91 1020.9
20180821052003 68 306 0.0 1.0 0.00 0.00 0.00 92 1020.9
20180821050003 68 0 0.0 0.0 0.00 0.00 0.00 92 1020.9
20180821045003 68 0 0.0 0.0 0.00 0.00 0.00 92 1020.9
20180821043003 68 0 0.0 0.0 0.00 0.00 0.00 92 1020.9
20180821042003 68 0 0.0 0.0 0.00 0.00 0.00 92 1020.9
20180821041003 68 0 0.0 0.0 0.00 0.00 0.00 92 1020.9
20180821040003 68 0 0.0 0.0 0.00 0.00 0.00 92 1020.9
20180821034003 68 0 0.0 0.0 0.00 0.00 0.00 91 1021.0
20180821033003 68 0 0.0 0.0 0.00 0.00 0.00 91 1020.9
20180821032003 68 0 0.0 0.0 0.00 0.00 0.00 91 1020.9
20180821031004 68 0 0.0 0.0 0.00 0.00 0.00 91 1020.9
20180821030004 68 0 0.0 0.0 0.00 0.00 0.00 91 1020.9
20180821025004 68 0 0.0 0.0 0.00 0.00 0.00 90 1020.9
20180821024004 68 0 0.0 0.0 0.00 0.00 0.00 90 1020.9
20180821020004 69 0 0.0 0.0 0.00 0.00 0.00 90 1020.8
20180821015004 69 0 0.0 0.0 0.00 0.00 0.00 90 1020.7
20180821014004 69 0 0.0 0.0 0.00 0.00 0.00 90 1020.8
20180821005003 69 0 0.0 0.0 0.00 0.00 0.00 88 1020.5
20180821003003 70 0 0.0 0.0 0.00 0.00 0.00 88 1020.5
20180821002003 70 0 0.0 0.0 0.00 0.00 0.00 87 1020.4
20180821001003 70 0 0.0 0.0 0.00 0.00 0.00 87 1020.1
20180820235003 70 0 0.0 0.0 0.00 0.00 0.00 86 1019.9
20180820234003 71 0 0.0 0.0 0.00 0.00 0.00 86 1020.1
20180820232003 71 0 0.0 0.0 0.00 0.00 0.00 84 1020.1
20180820231003 71 0 0.0 0.0 0.00 0.00 0.00 84 1020.0
20180820230003 71 0 0.0 0.0 0.00 0.00 0.00 84 1020.0
20180820225003 72 0 0.0 0.0 0.00 0.00 0.00 84 1019.9
20180820224003 72 0 0.0 0.0 0.00 0.00 0.00 83 1019.9
20180820223003 72 306 0.0 1.0 0.00 0.00 0.00 82 1019.9
20180820222003 72 306 0.0 1.0 0.00 0.00 0.00 82 1020.0
20180820221003 72 306 0.0 2.0 0.00 0.00 0.00 81 1020.0
20180820220003 72 305 0.0 2.0 0.00 0.00 0.00 80 1019.9
20180820215003 72 304 0.0 2.0 0.00 0.00 0.00 79 1019.8
20180820214003 72 306 0.0 7.0 0.00 0.00 0.00 79 1019.8
20180820213004 72 313 0.0 2.0 0.00 0.00 0.00 81 1019.7
20180820210004 72 323 1.0 3.0 0.00 0.00 0.00 81 1019.7
20180820205004 72 348 0.0 2.0 0.00 0.00 0.00 81 1019.7
20180820202004 72 54 0.0 1.0 0.00 0.00 0.00 83 1019.9
20180820201004 72 53 0.0 2.0 0.00 0.00 0.00 83 1020.0
20180820194003 70 46 0.0 1.0 0.00 0.00 0.00 85 1020.4
20180820193004 70 0 0.0 0.0 0.00 0.00 0.00 86 1020.5